AAL2031 KDCA-KCLE

Flight info

Callsign AAL2031
Flight time 0h 56m
Altitude 32000
Route HORTO4 JERES J211 JST UPPRR TRYBE4
Aircraft B738/M-SDE2E3FGHIRWXY/LB1

Departure

Time 2026-04-24 02:22
Airport Ronald Reagan Washington National Airport (KDCA)

Arrival

Time 2026-04-24 03:18
Airport Cleveland Hopkins International Airport (KCLE)
Time Latitude Longitude Altitude Speed Heading
2026-04-24 01:49 38.85467 -77.04194 29 ft 0 kts 169°
2026-04-24 02:12 38.85472 -77.04196 30 ft 4 kts 168°
2026-04-24 02:12 38.85496 -77.04206 31 ft 4 kts 134°
2026-04-24 02:13 38.85502 -77.04227 30 ft 2 kts 73°
2026-04-24 02:13 38.85502 -77.04228 30 ft 1 kts 72°
2026-04-24 02:17 38.85509 -77.04199 28 ft 8 kts 73°
2026-04-24 02:17 38.85535 -77.04098 25 ft 12 kts 71°
2026-04-24 02:17 38.85535 -77.04036 26 ft 8 kts 127°
2026-04-24 02:18 38.85473 -77.04009 27 ft 11 kts 174°
2026-04-24 02:18 38.85382 -77.03999 25 ft 16 kts 175°
2026-04-24 02:18 38.85242 -77.03986 21 ft 24 kts 175°
2026-04-24 02:18 38.85062 -77.03967 20 ft 27 kts 175°
2026-04-24 02:19 38.84942 -77.03956 20 ft 13 kts 175°
2026-04-24 02:19 38.84878 -77.03924 20 ft 9 kts 106°
2026-04-24 02:19 38.84812 -77.03882 22 ft 13 kts 176°
2026-04-24 02:19 38.84713 -77.03873 26 ft 16 kts 175°
2026-04-24 02:20 38.84582 -77.03859 24 ft 22 kts 176°
2026-04-24 02:20 38.84419 -77.03843 28 ft 21 kts 175°
2026-04-24 02:20 38.84325 -77.03833 26 ft 13 kts 176°
2026-04-24 02:20 38.84244 -77.03814 28 ft 9 kts 148°
2026-04-24 02:21 38.84221 -77.03782 26 ft 3 kts 125°
2026-04-24 02:21 38.84199 -77.03688 23 ft 9 kts 75°
2026-04-24 02:21 38.84247 -77.03670 22 ft 11 kts 340°
2026-04-24 02:21 38.84396 -77.03700 22 ft 46 kts 355°
2026-04-24 02:22 38.84971 -77.03759 22 ft 118 kts 356°
2026-04-24 02:22 38.86003 -77.03866 55 ft 174 kts 355°
2026-04-24 02:22 38.87211 -77.04045 819 ft 173 kts 342°
2026-04-24 02:22 38.88256 -77.04893 1438 ft 184 kts 314°
2026-04-24 02:23 38.89235 -77.06115 1909 ft 208 kts 315°
2026-04-24 02:23 38.90297 -77.07468 2358 ft 219 kts 306°
2026-04-24 02:23 38.91093 -77.09200 2794 ft 234 kts 295°
2026-04-24 02:23 38.91915 -77.11061 3186 ft 254 kts 311°
2026-04-24 02:24 38.93397 -77.12339 3945 ft 259 kts 330°
2026-04-24 02:24 38.94976 -77.13462 4632 ft 261 kts 329°
2026-04-24 02:24 38.96402 -77.14880 4940 ft 261 kts 306°
2026-04-24 02:24 38.97095 -77.17000 5008 ft 258 kts 283°
2026-04-24 02:25 38.97443 -77.19274 5008 ft 261 kts 281°
2026-04-24 02:25 38.97784 -77.21577 5013 ft 263 kts 282°
2026-04-24 02:25 38.98133 -77.23892 5002 ft 264 kts 282°
2026-04-24 02:25 38.98489 -77.26215 5006 ft 265 kts 282°
2026-04-24 02:26 38.98850 -77.28549 5009 ft 266 kts 282°
2026-04-24 02:26 38.99090 -77.30093 5011 ft 266 kts 283°
2026-04-24 02:26 38.99788 -77.32270 5002 ft 265 kts 307°
2026-04-24 02:26 39.01046 -77.33992 5018 ft 265 kts 317°
2026-04-24 02:27 39.02910 -77.36120 5726 ft 267 kts 318°
2026-04-24 02:27 39.03828 -77.37154 6450 ft 263 kts 318°
2026-04-24 02:27 39.05197 -77.38709 7337 ft 263 kts 317°
2026-04-24 02:27 39.06568 -77.40287 8170 ft 266 kts 317°
2026-04-24 02:28 39.07950 -77.41890 9019 ft 268 kts 316°
2026-04-24 02:28 39.09336 -77.43503 9854 ft 270 kts 316°
2026-04-24 02:28 39.10753 -77.45131 10466 ft 280 kts 320°
2026-04-24 02:28 39.12592 -77.46263 10619 ft 310 kts 345°
2026-04-24 02:29 39.14829 -77.46479 10836 ft 335 kts 357°
2026-04-24 02:29 39.17207 -77.46443 11328 ft 345 kts 358°
2026-04-24 02:29 39.19618 -77.46360 12056 ft 348 kts 359°
2026-04-24 02:29 39.22039 -77.46276 12857 ft 348 kts 359°
2026-04-24 02:30 39.24441 -77.46204 13599 ft 351 kts 358°
2026-04-24 02:30 39.26888 -77.46143 14268 ft 354 kts 358°
2026-04-24 02:30 39.29366 -77.46091 14879 ft 358 kts 358°
2026-04-24 02:30 39.31867 -77.46044 15492 ft 361 kts 358°
2026-04-24 02:31 39.34401 -77.46000 16099 ft 365 kts 358°
2026-04-24 02:31 39.36950 -77.45957 16715 ft 368 kts 358°
2026-04-24 02:31 39.39529 -77.45914 17323 ft 372 kts 358°
2026-04-24 02:31 39.42141 -77.45871 17903 ft 376 kts 358°
2026-04-24 02:32 39.44774 -77.45827 18451 ft 380 kts 358°
2026-04-24 02:32 39.47427 -77.45783 18958 ft 383 kts 358°
2026-04-24 02:32 39.50074 -77.45739 19470 ft 386 kts 357°
2026-04-24 02:32 39.52771 -77.45694 19965 ft 389 kts 357°
2026-04-24 02:33 39.55495 -77.45648 20449 ft 392 kts 357°
2026-04-24 02:33 39.58233 -77.45605 20939 ft 395 kts 356°
2026-04-24 02:33 39.60926 -77.46085 21475 ft 389 kts 338°
2026-04-24 02:33 39.63305 -77.47685 21973 ft 386 kts 321°
2026-04-24 02:34 39.65269 -77.50051 22431 ft 387 kts 309°
2026-04-24 02:34 39.66696 -77.53011 22869 ft 390 kts 295°
2026-04-24 02:34 39.67748 -77.56273 23354 ft 392 kts 292°
2026-04-24 02:34 39.68736 -77.59593 23764 ft 395 kts 291°
2026-04-24 02:35 39.69715 -77.62947 24071 ft 399 kts 291°
2026-04-24 02:35 39.70708 -77.66322 24461 ft 401 kts 292°
2026-04-24 02:35 39.71713 -77.69704 24898 ft 401 kts 292°
2026-04-24 02:35 39.72729 -77.73086 25315 ft 402 kts 292°
2026-04-24 02:36 39.73753 -77.76476 25693 ft 404 kts 292°
2026-04-24 02:36 39.74786 -77.79886 26054 ft 406 kts 292°
2026-04-24 02:36 39.75810 -77.83267 26400 ft 408 kts 292°
2026-04-24 02:36 39.76851 -77.86705 26767 ft 409 kts 292°
2026-04-24 02:37 39.77891 -77.90148 27187 ft 409 kts 292°
2026-04-24 02:37 39.78924 -77.93574 27730 ft 405 kts 292°
2026-04-24 02:37 39.79947 -77.96969 28290 ft 402 kts 292°
2026-04-24 02:37 39.80965 -78.00351 28748 ft 401 kts 292°
2026-04-24 02:38 39.81982 -78.03727 29172 ft 400 kts 292°
2026-04-24 02:38 39.83007 -78.07087 29644 ft 398 kts 295°
2026-04-24 02:38 39.84291 -78.10252 30130 ft 395 kts 302°
2026-04-24 02:38 39.85897 -78.13136 30557 ft 392 kts 310°
2026-04-24 02:39 39.87675 -78.15815 30958 ft 391 kts 310°
2026-04-24 02:39 39.89456 -78.18488 31298 ft 391 kts 310°
2026-04-24 02:39 39.91233 -78.21173 31582 ft 391 kts 310°
2026-04-24 02:39 39.92992 -78.23859 31922 ft 391 kts 310°
2026-04-24 02:40 39.96503 -78.29228 31948 ft 388 kts 310°
2026-04-24 02:40 39.99995 -78.34585 31964 ft 388 kts 310°
2026-04-24 02:41 40.03489 -78.39927 31977 ft 390 kts 310°
2026-04-24 02:41 40.07015 -78.45321 31963 ft 391 kts 310°
2026-04-24 02:42 40.10550 -78.50745 31969 ft 391 kts 310°
2026-04-24 02:42 40.14076 -78.56163 31975 ft 391 kts 310°
2026-04-24 02:43 40.17595 -78.61580 31969 ft 390 kts 310°
2026-04-24 02:43 40.21102 -78.66991 31973 ft 389 kts 309°
2026-04-24 02:44 40.24603 -78.72401 31965 ft 389 kts 309°
2026-04-24 02:44 40.28094 -78.77804 32002 ft 388 kts 309°
2026-04-24 02:45 40.31576 -78.83199 32000 ft 388 kts 310°
2026-04-24 02:45 40.35213 -78.88372 32006 ft 388 kts 313°
2026-04-24 02:46 40.38954 -78.93472 32011 ft 388 kts 313°
2026-04-24 02:46 40.42694 -78.98597 31998 ft 388 kts 312°
2026-04-24 02:47 40.46411 -79.03734 31979 ft 388 kts 312°
2026-04-24 02:47 40.50129 -79.08883 31973 ft 388 kts 312°
2026-04-24 02:48 40.53830 -79.14024 31981 ft 388 kts 312°
2026-04-24 02:48 40.57543 -79.19196 31983 ft 389 kts 312°
2026-04-24 02:49 40.61259 -79.24380 31981 ft 390 kts 312°
2026-04-24 02:49 40.64979 -79.29578 31986 ft 390 kts 312°
2026-04-24 02:50 40.68707 -79.34796 31977 ft 391 kts 312°
2026-04-24 02:50 40.72429 -79.40016 31980 ft 390 kts 312°
2026-04-24 02:51 40.76124 -79.45206 31964 ft 391 kts 311°
2026-04-24 02:51 40.79846 -79.50443 31967 ft 391 kts 311°
2026-04-24 02:52 40.83576 -79.55685 31992 ft 390 kts 311°
2026-04-24 02:52 40.87253 -79.60883 31953 ft 377 kts 311°
2026-04-24 02:53 40.89015 -79.63376 31916 ft 366 kts 311°
2026-04-24 02:53 40.90740 -79.65819 31646 ft 359 kts 311°
2026-04-24 02:53 40.92434 -79.68221 31291 ft 356 kts 311°
2026-04-24 02:53 40.94109 -79.70598 30975 ft 352 kts 311°
2026-04-24 02:54 40.95771 -79.72956 30610 ft 349 kts 311°
2026-04-24 02:54 40.97421 -79.75299 30258 ft 348 kts 311°
2026-04-24 02:54 40.99081 -79.77659 29882 ft 352 kts 311°
2026-04-24 02:54 41.00751 -79.80034 29435 ft 352 kts 311°
2026-04-24 02:55 41.02413 -79.82400 29043 ft 348 kts 311°
2026-04-24 02:55 41.04056 -79.84739 28654 ft 345 kts 311°
2026-04-24 02:55 41.05683 -79.87058 28284 ft 342 kts 311°
2026-04-24 02:55 41.07275 -79.89329 27900 ft 340 kts 311°
2026-04-24 02:56 41.08877 -79.91616 27536 ft 337 kts 311°
2026-04-24 02:56 41.10477 -79.93901 27168 ft 339 kts 311°
2026-04-24 02:56 41.12090 -79.96210 26812 ft 342 kts 311°
2026-04-24 02:56 41.13709 -79.98526 26457 ft 341 kts 311°
2026-04-24 02:57 41.15318 -80.00830 26077 ft 339 kts 311°
2026-04-24 02:57 41.16916 -80.03120 25712 ft 336 kts 311°
2026-04-24 02:57 41.18500 -80.05391 25348 ft 334 kts 311°
2026-04-24 02:57 41.20072 -80.07649 24986 ft 332 kts 311°
2026-04-24 02:58 41.21621 -80.09872 24630 ft 331 kts 311°
2026-04-24 02:58 41.23180 -80.12114 24277 ft 329 kts 311°
2026-04-24 02:58 41.24593 -80.14485 23894 ft 327 kts 298°
2026-04-24 02:58 41.25516 -80.17249 23486 ft 328 kts 292°
2026-04-24 02:59 41.26354 -80.20081 23012 ft 330 kts 291°
2026-04-24 02:59 41.27184 -80.22927 22583 ft 330 kts 291°
2026-04-24 02:59 41.28014 -80.25766 22163 ft 329 kts 291°
2026-04-24 02:59 41.28849 -80.28599 21748 ft 328 kts 291°
2026-04-24 03:00 41.29684 -80.31414 21344 ft 327 kts 291°
2026-04-24 03:00 41.30518 -80.34218 20937 ft 326 kts 291°
2026-04-24 03:00 41.31354 -80.37023 20539 ft 325 kts 291°
2026-04-24 03:00 41.32186 -80.39818 20140 ft 325 kts 291°
2026-04-24 03:01 41.33019 -80.42613 19741 ft 324 kts 291°
2026-04-24 03:01 41.33849 -80.45400 19347 ft 324 kts 291°
2026-04-24 03:01 41.34670 -80.48158 18941 ft 324 kts 291°
2026-04-24 03:01 41.35496 -80.50937 18676 ft 320 kts 291°
2026-04-24 03:02 41.36305 -80.53661 18479 ft 314 kts 291°
2026-04-24 03:02 41.37107 -80.56365 18072 ft 314 kts 291°
2026-04-24 03:02 41.37910 -80.59076 17629 ft 315 kts 291°
2026-04-24 03:02 41.38714 -80.61789 17271 ft 314 kts 291°
2026-04-24 03:03 41.39512 -80.64487 16909 ft 312 kts 291°
2026-04-24 03:03 41.40306 -80.67173 16551 ft 311 kts 291°
2026-04-24 03:03 41.41094 -80.69849 16184 ft 310 kts 291°
2026-04-24 03:03 41.41878 -80.72519 15816 ft 309 kts 291°
2026-04-24 03:04 41.42661 -80.75191 15452 ft 309 kts 291°
2026-04-24 03:04 41.43441 -80.77857 15097 ft 308 kts 291°
2026-04-24 03:04 41.44210 -80.80486 14753 ft 308 kts 291°
2026-04-24 03:04 41.44985 -80.83139 14408 ft 307 kts 291°
2026-04-24 03:05 41.45762 -80.85803 14065 ft 307 kts 291°
2026-04-24 03:05 41.46535 -80.88453 13720 ft 306 kts 291°
2026-04-24 03:05 41.47304 -80.91092 13372 ft 305 kts 291°
2026-04-24 03:05 41.48070 -80.93725 13016 ft 304 kts 291°
2026-04-24 03:06 41.48831 -80.96340 12674 ft 302 kts 291°
2026-04-24 03:06 41.49587 -80.98942 12392 ft 299 kts 291°
2026-04-24 03:06 41.50335 -81.01522 12052 ft 298 kts 291°
2026-04-24 03:06 41.51081 -81.04092 11716 ft 297 kts 291°
2026-04-24 03:07 41.51612 -81.06737 11364 ft 295 kts 271°
2026-04-24 03:07 41.51529 -81.09424 11139 ft 290 kts 266°
2026-04-24 03:07 41.51398 -81.12068 11019 ft 282 kts 266°
2026-04-24 03:07 41.51274 -81.14652 10834 ft 277 kts 266°
2026-04-24 03:08 41.51158 -81.17206 10552 ft 275 kts 266°
2026-04-24 03:08 41.50940 -81.22293 10002 ft 273 kts 266°
2026-04-24 03:08 41.50833 -81.24812 9729 ft 271 kts 266°
2026-04-24 03:09 41.50726 -81.27327 9441 ft 270 kts 266°
2026-04-24 03:09 41.50620 -81.29815 9158 ft 268 kts 266°
2026-04-24 03:09 41.50514 -81.32289 8886 ft 266 kts 266°
2026-04-24 03:09 41.50409 -81.34742 8603 ft 265 kts 266°
2026-04-24 03:10 41.50305 -81.37162 8332 ft 263 kts 266°
2026-04-24 03:10 41.50199 -81.39594 8067 ft 261 kts 266°
2026-04-24 03:10 41.50094 -81.42004 7798 ft 260 kts 266°
2026-04-24 03:10 41.50064 -81.44409 7520 ft 258 kts 271°
2026-04-24 03:11 41.50130 -81.46798 7259 ft 257 kts 272°
2026-04-24 03:11 41.50201 -81.49106 7175 ft 239 kts 272°
2026-04-24 03:11 41.50259 -81.51232 7062 ft 220 kts 271°
2026-04-24 03:11 41.50308 -81.53188 6946 ft 202 kts 271°
2026-04-24 03:12 41.50351 -81.54986 6824 ft 185 kts 271°
2026-04-24 03:12 41.50390 -81.56662 6500 ft 180 kts 271°
2026-04-24 03:12 41.50415 -81.57766 6257 ft 178 kts 271°
2026-04-24 03:12 41.50453 -81.59427 5780 ft 181 kts 271°
2026-04-24 03:13 41.50490 -81.61099 5421 ft 178 kts 271°
2026-04-24 03:13 41.50527 -81.62743 5105 ft 176 kts 271°
2026-04-24 03:13 41.50563 -81.64370 4799 ft 175 kts 271°
2026-04-24 03:13 41.50575 -81.65986 4465 ft 173 kts 263°
2026-04-24 03:14 41.50288 -81.67536 4122 ft 173 kts 252°
2026-04-24 03:14 41.49917 -81.69065 3778 ft 173 kts 251°
2026-04-24 03:14 41.49546 -81.70585 3479 ft 169 kts 251°
2026-04-24 03:14 41.49196 -81.72031 3184 ft 159 kts 251°
2026-04-24 03:15 41.48757 -81.73320 2939 ft 148 kts 235°
2026-04-24 03:15 41.48140 -81.74391 2739 ft 145 kts 231°
2026-04-24 03:15 41.47504 -81.75415 2555 ft 147 kts 230°
2026-04-24 03:15 41.46843 -81.76465 2374 ft 147 kts 230°
2026-04-24 03:16 41.46188 -81.77508 2156 ft 147 kts 230°
2026-04-24 03:16 41.45552 -81.78593 1963 ft 146 kts 231°
2026-04-24 03:16 41.44914 -81.79625 1723 ft 146 kts 227°
2026-04-24 03:16 41.44249 -81.80646 1491 ft 146 kts 229°
2026-04-24 03:17 41.43590 -81.81685 1368 ft 146 kts 228°
2026-04-24 03:17 41.42923 -81.82739 1180 ft 150 kts 227°
2026-04-24 03:17 41.42244 -81.83804 1006 ft 152 kts 228°
2026-04-24 03:17 41.41564 -81.84871 839 ft 150 kts 228°
2026-04-24 03:18 41.40925 -81.85864 786 ft 119 kts 230°
2026-04-24 03:18 41.40533 -81.86482 777 ft 55 kts 229°
2026-04-24 03:18 41.40344 -81.86654 773 ft 19 kts 182°
2026-04-24 03:18 41.40263 -81.86594 772 ft 8 kts 140°
2026-04-24 03:19 41.40214 -81.86540 771 ft 12 kts 140°
2026-04-24 03:19 41.40138 -81.86455 769 ft 19 kts 140°
2026-04-24 03:19 41.40030 -81.86334 771 ft 19 kts 139°
2026-04-24 03:19 41.40010 -81.86189 773 ft 19 kts 50°
2026-04-24 03:20 41.40094 -81.86055 774 ft 19 kts 50°
2026-04-24 03:20 41.40205 -81.85953 777 ft 20 kts
2026-04-24 03:20 41.40323 -81.85889 780 ft 18 kts 44°
2026-04-24 03:20 41.40406 -81.85761 783 ft 18 kts 49°
2026-04-24 03:21 41.40487 -81.85631 785 ft 19 kts 50°
2026-04-24 03:21 41.40580 -81.85486 784 ft 21 kts 49°
2026-04-24 03:21 41.40651 -81.85340 784 ft 18 kts 82°
2026-04-24 03:21 41.40647 -81.85164 785 ft 19 kts 93°
2026-04-24 03:22 41.40640 -81.84991 789 ft 18 kts 93°
2026-04-24 03:22 41.40631 -81.84823 790 ft 19 kts 93°
2026-04-24 03:22 41.40625 -81.84672 793 ft 14 kts 93°
2026-04-24 03:22 41.40619 -81.84549 795 ft 13 kts 94°
2026-04-24 03:23 41.40615 -81.84422 796 ft 12 kts 92°
2026-04-24 03:23 41.40612 -81.84340 796 ft 10 kts 91°
2026-04-24 03:23 41.40637 -81.84284 794 ft 9 kts 40°
2026-04-24 03:23 41.40661 -81.84258 794 ft 2 kts 40°
2026-04-24 03:24 41.40670 -81.84249 794 ft 1 kts 39°
2026-04-24 03:24 41.40671 -81.84248 794 ft 0 kts 39°